This is the latest recevied weather packets stored in our database for station/object G4GVZ-1. If no packets are shown the sender has not sent any weather packets the latest 10 day(s).
| Time | Temp. | Humidity | Pressure | Rain* | Wind** | Luminosity | Snow |
|---|---|---|---|---|---|---|---|
| 1777569350 | 21.67° C | 36% | 1018.1 hPa | 0 mm | - | - | - |
| 1777568450 | 22.22° C | 35% | 1018.1 hPa | 0 mm | - | - | - |
| 1777567550 | 22.22° C | 34% | 1018.2 hPa | 0 mm | - | - | - |
| 1777566649 | 22.22° C | 34% | 1018.2 hPa | 0 mm | - | - | - |
| 1777565751 | 22.22° C | 33% | 1018.4 hPa | 0 mm | - | - | - |
| 1777564851 | 22.22° C | 33% | 1018.2 hPa | 0 mm | - | - | - |
| 1777563951 | 22.22° C | 33% | 1018.3 hPa | 0 mm | - | - | - |
| 1777563050 | 22.22° C | 33% | 1018.3 hPa | 0 mm | - | - | - |
| 1777562150 | 22.22° C | 33% | 1018.4 hPa | 0 mm | - | - | - |
| 1777561252 | 22.22° C | 33% | 1018.4 hPa | 0 mm | - | - | - |
| 1777560350 | 22.22° C | 33% | 1018.5 hPa | 0 mm | - | - | - |
| 1777559453 | 22.78° C | 33% | 1018.7 hPa | 0 mm | - | - | - |
| 1777558551 | 22.22° C | 34% | 1018.7 hPa | 0 mm | - | - | - |
| 1777557651 | 22.22° C | 33% | 1018.8 hPa | 0 mm | - | - | - |
| 1777556751 | 21.67° C | 34% | 1018.8 hPa | 0 mm | - | - | - |
| 1777555850 | 21.67° C | 33% | 1018.9 hPa | 0 mm | - | - | - |
| 1777554950 | 21.67° C | 34% | 1019.2 hPa | 0 mm | - | - | - |
| 1777554052 | 21.67° C | 33% | 1019.1 hPa | 0 mm | - | - | - |
| 1777553152 | 21.11° C | 35% | 1019.3 hPa | 0 mm | - | - | - |
| 1777552569 | 21.11° C | 35% | 1019.3 hPa | 0 mm | - | - | - |
| 1777552252 | 21.11° C | 35% | 1019.3 hPa | 0 mm | - | - | - |
| 1777551352 | 20.56° C | 35% | 1019.3 hPa | 0 mm | - | - | - |
| 1777550452 | 20.56° C | 37% | 1019.3 hPa | 0 mm | - | - | - |
| 1777550023 | 20° C | 37% | 1019.7 hPa | 0 mm | - | - | - |
| 1777549551 | 20° C | 37% | 1019.7 hPa | 0 mm | - | - | - |
* Rain latest hour (hover to see other rain measurements)
** Current wind speed in m/s (hover to see current wind gust speed)